timestamp,gas_concentrations,,corrected_fluxes_and_quality_flags,,,,,,,,,,storage_terms,,,turbulence,,,footprint,,
ISOdate,CO2_1_1_1,H2O_1_1_1,Tau_1_1_1,QcTau_1_1_1,H_1_1_1,QcH_1_1_1,LE_1_1_1, QcLE_1_1_1,Fc_1_1_1, QcFc_1_1_1,E_1_1_1, QcE_1_1_1,Sa_1_1_1,Sw_1_1_1,Sc_1_1_1,ustar_1_1_1,MO_length_1_1_1,ZL_1_1_1,Fetchmax_1_1_1,Fetch70_1_1_1,Fetch90_1_1_1
yyyymmddHHMM,[µmol+1mol_a-1],[mmol+1mol_a-1],[kg+1m-1s-2],[#],[W+1m-2],[#],[W+1m-2],[#],[µmol+1s-1m-2],[#],[mmol+1s-1m-2],[#],[W+1m-2],[W+1m-2],[µmol+1s-1m-2],[m+1s-1],[m],[#],[m],[m],[m]
201802270030,418.43146581948872,3.2772036179114483,0.36894121918549655,0,-73.751822565634839,0,7.6095687519156128,0,0.44241814577841776,0,0.16928738361308338,0,-9999.,-9999.,-9999.,0.55508078516655524,194.48111824053279,0.11106476657176191,107.04325469729343,195.70920928172194,293.20805839123483
201802270100,418.47975246298762,3.3493947172439360,0.24016889780082112,0,-68.734300356531904,0,9.9457951580602995,0,0.49166015491117765,0,0.22112199833163665,0,-15.503256555698684,2.6197028348090905,3.89572087667082803E-002,0.44731878609137893,109.21098904699723,0.19778229451529628,96.316605529722537,176.09747351411713,263.82610448520376
201802270130,418.36215565066647,3.3526597070217936,0.25959738125072529,0,-56.771454666967585,0,8.3674561947262944,0,0.20829564297428593,0,0.18594320162988298,0,-11.741009001036195,0.11875595146922979,-9.50508411050066948E-002,0.46463227831192366,148.18065085102708,0.14576801948127147,103.11587166047961,188.52870051585091,282.45034779994830
201802270200,418.40893555414374,3.3024365631728063,0.16988418708022110,0,-39.294326363379412,0,7.0839565444789567,0,0.74464834217598863,0,0.15730259308448738,0,-18.729093245242517,-1.8330681008551353,3.79135123399913787E-002,0.37535692366139956,112.85714803037835,0.19139239629009422,97.385506250830986,178.05176494070326,266.75398916075375
201802270230,418.60640256767113,3.3198450427803192,0.34980822303618309,0,-83.211231973905655,0,10.050068481523557,0,1.2747208720880154,0,0.22306524855987203,0,-11.320770406898168,0.63681905160976715,0.16032921200670772,0.53813679810943205,157.04945395646314,0.13753629481569479,107.82479760081749,197.13811896968849,295.34882548524519
201802270300,418.87009099210417,3.3710748100842163,0.32771969293635805,0,-85.792186263835987,0,10.516421604170294,0,0.42370370454223760,0,0.23339881022897147,0,-1.8530897501276773,1.8746224527797779,0.21414756748557004,0.52081223059491277,138.07799014267320,0.15643333146492905,103.19279678292307,188.66934417368699,282.66105762801675
201802270330,419.05422717458822,3.3883264935890236,0.23086593196765443,0,-70.204526849961155,0,6.7604344918926849,0,0.53698148355137443,0,0.15001975620748767,0,-3.2659916512847476,0.63163396066847988,0.14960529743990861,0.43703716487674016,99.699941084957672,0.21665007787310442,99.122679730525448,181.22787210464938,271.51237645484673
201802270400,418.70525744528464,3.4668172577451219,0.45370781881205502,0,-105.65006354664312,0,10.427004991234746,0,1.9425202501858676,0,0.23146499981790822,0,8.7220639887610343,2.8691283581188451,-0.28316849062175448,0.61306759863894289,182.89155936266863,0.11810277125565884,104.32455988162667,190.73856807544411,285.76113209481190
201802270430,418.62627823404313,3.5333594261228636,0.64329291269223943,0,-116.97696692985971,0,16.443827270909448,0,1.1932496753833286,0,0.36522167071962403,0,13.052532952913982,2.4260940695442161,-6.39553841805628187E-002,0.73076293432564199,279.74685008302754,7.72126656424879237E-002,107.57456172068154,196.68060797215935,294.66339064152737
201802270500,418.50640672095426,3.5838326455377101,0.49862621770983423,0,-92.658974206237232,0,15.234998185709260,0,1.8378608879779952,0,0.33848670744060388,0,8.3236501491270527,1.8371377144619210,-9.69384128298743097E-002,0.64380750312009127,241.49320260394364,8.94435113166504869E-002,98.065317884083285,179.29467742108852,268.61609854467855
201802270530,418.81442248053867,3.6967146565189943,0.79888778115269554,0,-103.86542779342888,0,11.364540526886159,0,2.0213190310152340,0,0.25255688378006874,0,6.1728632592208070,4.1029088883221236,0.24879829590480998,0.81540501195874604,437.64151085828468,4.93554643791421013E-002,107.35662849589905,196.28215653101989,294.06643777534151
201802270600,419.16540359349329,3.8004152200958554,0.67106433369543061,0,-86.852234923465673,0,15.146832066280348,0,1.7178886563861013,0,0.33663113637064856,0,1.4350206032781325,3.7679980679663161,0.28342997229302880,0.74744167790208271,403.10345955678940,5.35842585517601680E-002,97.933162273202413,179.05305481552801,268.25410385214542
201802270630,419.38018638767727,3.8627242429123103,0.48113358232474485,0,-66.890764020526959,0,10.603714251372745,0,0.75058239653357894,0,0.23563372780580935,0,-3.0283704395638544,2.2653987449415931,0.17352923065609627,0.63274340662456330,317.53470381908375,6.80240608040961064E-002,103.07627750777247,188.45630977679494,282.34189328152269
201802270700,419.38700576200671,3.9002600726258301,0.64744338812283075,0,-78.941020244420443,0,11.533058540587362,0,0.85900960394583414,0,0.25617968161192090,0,-10.254331243597193,1.3673956264586833,5.51814212308106462E-003,0.73343423930700613,419.03014482327183,5.15476040729955509E-002,109.39522885676752,200.00936816892508,299.65047999580872
201802270730,419.37906759836881,3.9443465490760032,0.37839089112451446,0,-63.371835461394895,0,6.6269552493454045,0,-0.23211378153746409,0,0.14715401274211842,0,-8.1417028654897976,1.6083210811806441,-6.43051096963833443E-003,0.56039686876855122,232.81239765501559,9.27785642756326079E-002,95.979555582710361,175.48123871441175,262.90287246256224
201802270800,419.55779675609836,4.0109266641405918,0.43466274893087004,0,-74.036127507739124,0,4.2727439730512478,0,-0.43535150786442500,0,9.48577530420348231E-002,0,-5.2819820534008288,2.4310854110669431,0.14488287229661412,0.60042525121784929,245.08098124430106,8.81341338292943172E-002,103.27281885200669,188.81565003770177,282.88025047272993
201802270830,419.58118623945086,4.0542435719065280,0.43429622879458729,0,-70.145831917608035,0,2.5847952578412743,0,1.0614572074982678,0,5.73738896368307938E-002,0,-4.4656346691260822,1.5827589146966163,1.89699460691196038E-002,0.60002233149605066,258.12143856072714,8.36815419921745907E-002,105.93562570817521,193.68411022946634,290.17409098959325
201802270900,419.74803504406412,4.1155711160899147,0.31659019421715612,0,-52.757829471257288,0,1.0186632444073700,1,2.3272196208476066,0,2.26102412290778501E-002,1,-0.77954474388242467,2.2404132127472161,0.13529140608418849,0.51236250029324493,213.63144708734558,0.10110870985753610,94.868117659574338,173.44917571597443,259.85847180054338
201802270930,419.90479332925486,4.1591712475435161,0.31059803128646840,0,-53.019362599948622,0,1.7520558951268039,0,0.82938229440261857,0,3.88855837577992899E-002,0,-1.9453013364853293,1.5932200485439441,0.12713324551717339,0.50744710835283691,206.50245282105470,0.10459924182458764,103.36281057769204,188.98018361364345,283.12675175143352
201802271000,420.09258514380173,4.1890665523484891,0.28012086591273877,0,-48.572308674380196,0,0.11282608022977834,0,1.1539150859788179,0,2.50396713087310983E-003,0,-1.2365087955995056,1.0924921808060768,0.15230393822721511,0.48190751505739621,193.03507899996717,0.11189676048467685,104.62680155740210,191.29116225380002,286.58901886983233
201802271030,420.27541810624768,4.2254001969670707,0.22422378798783557,0,-57.299162867670695,0,4.3977458467389221,0,1.1127763814351601,0,9.76069652132882382E-002,0,1.8105720478198093,1.3270283262908240,0.14820962494327275,0.43126188912559366,117.25925590951661,0.18420720677835184,89.711849107701212,164.02187229564208,245.73465339728313
201802271100,420.47520384637266,4.2253024201320493,0.32458138684643639,0,-37.553809870140093,0,3.4131566333889833,0,1.0629151216600070,0,7.57553812844529856E-002,0,0.37788371876618654,-3.57132602302257440E-003,0.16196280115884498,0.51885689923892220,311.60170753953349,6.93192607016107909E-002,101.01786153725840,184.69286888459303,276.70357303628447
201802271130,420.63850404100299,4.1777385607405746,0.32078216690775213,0,-45.849410731176583,0,7.2328321337153412,0,-5.13512560156215159E-002,0,0.16049779182516108,0,-5.5487809710278331,-1.7397220228078609,0.13254097250579303,0.51550235997550120,250.35948359680987,8.62759408578490650E-002,108.32503676067604,198.05271569700705,296.71905804411278
201802271200,420.73862546513158,4.1419618838084142,0.29108644580351023,0,-48.785188098059805,0,1.9154681015280994,0,1.0398320308766866,0,4.24930232948190906E-002,0,-6.7869146866781698,-1.3106112654914173,8.13661230525149631E-002,0.49074628627369682,203.02698914229782,0.10638979621010369,111.65696602089589,204.14454504902270,305.84572849008072
201802271230,420.65860321925192,4.1259322461452674,0.38362000739088331,0,-56.868704096170582,0,1.4513142179523317,0,0.81179890642906116,0,3.21910828335768354E-002,0,-3.9486059854662243,-0.58771678594524379,-6.50772602685739110E-002,0.56317630800403429,263.24148498328339,8.20539361467728656E-002,104.46931929778812,191.00323445683506,286.15765056266468
201802271300,420.69457507143431,4.1238244369422912,0.47143855349175173,0,-51.387411395539957,0,0.58698013304804053,0,1.0831298773887883,0,1.30180307697117022E-002,0,-3.0105938551158591,-7.73360866088668442E-002,2.92708670463512274E-002,0.62413565777999513,396.56178208140017,5.44681837130898336E-002,111.08708578440174,203.10262222273204,304.28473823309986
201802271330,420.92060959554738,4.1412067951122307,0.34739755052605653,0,-25.014813508356358,0,-4.5524462406644854,1,0.13413569058001551,0,-0.10093484890609337,1,-7.2447984835950550,0.63854175717254946,0.18409911358046457,0.53552430519681637,514.53039103953097,4.19800275671966885E-002,108.65547094192969,198.65685476691556,297.62416845938799
201802271400,421.34225355703484,4.1935117757213289,0.42286613507142368,0,-9.0676894558000605,1,-4.7947725389800890,1,0.31625211212710630,0,-0.10631723254138620,1,2.2688704006420908,1.9203353784020785,0.34325397607693220,0.59098325990810263,1907.5016412616917,1.13237124061990151E-002,117.49841081058015,214.82456915782669,321.84635076026865
201802271430,421.69482155547638,4.2568878174219007,0.38106058746442423,0,18.459742550203107,1,2.6000377622805440,0,-0.29744789016537043,0,5.76720213702300727E-002,0,8.6312352593009010,2.3234204557017621,0.28670225298810104,0.56132798243035920,-803.04176053963818,-2.68977294349984491E-002,109.55297044398215,200.29777009945232,300.08255864145104
201802271500,421.93166946959337,4.2950258820603002,0.36565834211890447,0,52.913440046802222,0,8.7505181648605372,0,0.15715133186188757,0,0.19422256492043638,0,16.103047674275238,1.3939550518717514,0.19214345624996437,0.55052449403607917,-264.31497877451284,-8.17206807580396905E-002,118.34473890957460,216.37192684529145,324.16457454157882
201802271530,422.28458413773842,4.2719029947861076,0.39765446218902256,0,91.562719894470959,0,13.369247712966567,0,0.50659797427455100,0,0.29693849801963129,0,16.810334567311859,-0.84250859256818866,0.28560218346898752,0.57480699151742887,-173.88275000757403,-0.12422163785113327,117.37357600049049,214.59633131096214,321.50440887528453
201802271600,421.63345336698887,4.1599875751343909,0.38098420107156289,0,125.87653896566506,0,9.2034378116175581,2,-0.51354207368190607,1,0.20455050456729720,2,16.600714243262559,-4.0641526014225997,-0.52553152302012063,0.56337039617454787,-119.07268970146364,-0.18140179796185871,117.04275726847879,213.99148915962175,320.59824511590614
201802271630,421.24171522080354,4.0456261305423196,0.15623350763283703,0,97.861062684545232,0,9.7856905464924164,0,-0.20091395299528347,0,0.21766674054252647,0,19.897592819940364,-4.1360230697135743,-0.31513727813406395,0.36135289946582688,-40.410652965345328,-0.53451252120383597,97.389391001922561,178.05886750467647,266.76463009584222
201802271700,421.10829441262342,3.9432289836447341,0.34728667936018154,1,126.56755037411712,0,64.373892898174120,1,3.0167278265593200,1,1.4335719426569422,1,28.774077012991850,-3.6822145728038462,-0.10684507859515228,0.53996619891021680,-104.24771298257455,-0.20719879009346259,112.76003643260248,206.16130956788606,308.86720924194992
201802271730,420.64964633458987,3.8734712599429457,0.11243960749407787,0,107.21889500637482,0,16.755991555014674,1,0.65844556044169700,0,0.37337962798167179,1,15.256842752484172,-2.5016386631755800,-0.36651549824812291,0.30756402154170337,-22.745856886152310,-0.94962349003216018,75.621642199391246,138.26048022624605,207.13939373707041
201802271800,420.63745433139775,3.9013657016326762,0.27699816263054455,1,175.10761989835294,0,33.907914816785627,0,1.8946404490015301,0,0.75610193923775038,0,16.781088493648415,0.99706586010979903,-9.71763334939378977E-003,0.48337064319106937,-54.064484176443059,-0.39952290915246608,108.64849154199970,198.64409419787810,297.60505080168980
201802271830,420.37290663565574,3.8553873125144937,0.23078813333199633,1,158.27061767082273,0,21.197987913322887,0,0.24418365234789530,0,0.47294940447084605,0,13.481978492427338,-1.6385763082484652,-0.21034730185676070,0.44174436904237685,-45.644361118527193,-0.47322384344278817,104.13051709295553,190.38379597097995,285.22961883438290
201802271900,420.08344898021295,3.8364185075634030,0.10802216367444677,1,110.69037676922028,0,22.456617768460671,1,1.8946900231761075,0,0.50127387764960940,1,11.764380982427493,-0.67415603428439452,-0.22963401629841707,0.30255898293609323,-20.963421098169025,-1.0303661744354586,75.684270891661171,138.37498545011235,207.31094342800583
201802271930,419.82879445256771,3.8216274300562221,0.19770999265261491,1,101.46797068811497,1,16.107456846178092,1,0.13097682191926374,1,0.35977253144662613,1,15.043760670509480,-0.52391372159002680,-0.20147092844687373,0.40988479427519969,-56.842965278646119,-0.37999425072418508,102.56014555924233,187.51265596303975,280.92812791227857
201802272000,419.87457158863708,3.8215191917422011,6.65598226202880061E-002,1,123.64134062392026,0,19.493014720214543,1,0.11638137526148817,0,0.43559242148805305,1,11.119221536541971,-3.82472009648261724E-003,3.61466922926253903E-002,0.23805323494029620,-9.1372885517961002,-2.3639397921557515,69.387610434213030,126.86268191704519,190.06341491910379
201802272030,419.40896450592800,3.7980513904926911,0.12626376404482204,1,108.44968477245158,1,13.622797339063066,1,0.11076857762037928,1,0.30445366600311025,1,2.9725220108522556,-0.82837126219138213,-0.36730523029234002,0.32802855458683716,-27.246670975570233,-0.79275739848610793,102.40345748473278,187.22618018973802,280.49893500115189
201802272100,419.48740639969009,3.7650732389456580,0.12277366558298257,1,175.12481857611442,1,4.3740472334851139,2,-3.0249884980871471,1,9.77928853274218218E-002,2,9.3447115791557298,-1.1614766515695327,6.17669328051476674E-002,0.32375908812336363,-16.218296344820434,-1.3318291601508625,93.632505155263530,171.19008197969819,256.47393772282470
201802272130,419.19280004150073,3.7174815533950594,9.46224751613959809E-003,1,55.122604589373218,1,6.3788211576092468,1,-2.5852195307827968,1,0.14262166586806729,1,1.1771430620794254,-1.6753697743384461,-0.23188186456837387,8.98988724287852065E-002,-1.1029173638851821,-19.584422829205401,11.098086523865273,33.000000000000000,73.000000000000000
201802272200,418.71603468537148,3.6965350263950900,9.42501985496847217E-002,1,55.383827801080471,0,7.9110855594038414,0,-1.6212616464138678,0,0.17686134348150015,0,-2.6687289178871425,-0.73775595006481798,-0.37540687627120634,0.28366782226775011,-34.486554315596237,-0.62633105651356979,101.45802320745287,185.49762480007303,277.90924404340137
201802272230,418.37339974758657,3.6273584758399244,9.02475159728764464E-002,1,22.989062378565936,0,5.8278303313024127,1,-0.56004571218001220,0,0.13027374091572591,1,-2.5926779679402818,-2.4371481969363700,-0.26983896722150114,0.27755121595505883,-77.809762253662271,-0.27760012849780114,117.29487471768751,214.45244026551154,321.28883386881802
201802272300,417.98116469526764,3.5781374841923892,1.36060798584156963E-002,1,0.61951240392639073,1,0.94593383546161758,1,-0.19058995315030711,1,2.11398612022260200E-002,1,-6.0163440257722334,-1.7359958050856314,-0.30916198402114364,0.10772205636194415,-168.79381297095460,-0.12796677567629122,91.986488690500423,359.00000000000000,938.00000000000000
201802272330,417.90935649656689,3.5706122734549210,6.40220053248008979E-003,1,-1.3931041036403069,1,0.13536496473603368,1,0.10916161891284307,1,3.02455273588624713E-003,1,-4.7954275826894746,-0.26567365006040922,-5.66446288373051235E-002,7.38634579961218868E-002,24.199771052122358,0.89257042777293738,139.96109039333706,1218.0000000000000,5750.0000000000000
201802280000,420.00354315502324,3.7292015463270167,1.38992800047460056E-002,1,-11.467142173188995,1,1.7493226198206790,1,0.23175625012102918,1,3.90529559560297557E-002,1,-20.642483545618223,5.6217733383816295,1.6572915340700476,0.10866127099071538,9.3602012709170523,2.3076426857521808,415.29764798038110,3546.0000000000000,-9999.
